Location: Erdweis
(48.5167°N, 15.3500°E)
Time: 12:14:24
(UTC+00:00)

Cosmos 2084 Rocket - Visible Passes

Search period start: 16 January 2021 00:00
Search period end: 26 January 2021 00:00
Orbit: 536 x 644 km, 62.8° (Epoch: 15 January)

Date Brightness Start Highest point End Pass type
(mag) Time Alt. Az. Time Alt. Az. Time Alt. Az.
16 Jan 5.6 04:46:06 13° N 04:48:00 16° NNE 04:50:45 10° ENE visible
17 Jan 5.5 04:53:53 13° NNW 04:56:21 20° NNE 04:59:36 10° ENE visible
18 Jan 6.3 03:25:10 11° NNE 03:25:10 11° NNE 03:25:40 10° NNE visible
18 Jan 5.2 05:01:41 13° NNW 05:04:39 25° NNE 05:08:21 10° E visible
19 Jan 6.1 03:32:59 13° NNE 03:32:59 13° NNE 03:34:30 10° NE visible
19 Jan 4.8 05:09:31 13° NNW 05:12:54 34° NE 05:16:57 10° ESE visible
20 Jan 5.8 03:40:51 16° NNE 03:40:51 16° NNE 03:43:24 10° ENE visible
20 Jan 4.3 05:17:22 13° NNW 05:21:03 48° NE 05:25:24 10° ESE visible
21 Jan 5.5 03:48:44 20° NNE 03:48:59 20° NNE 03:52:15 10° ENE visible
21 Jan 3.7 05:25:16 13° NW 05:29:08 73° NE 05:33:38 10° SE visible
22 Jan 5.2 03:56:40 25° NNE 03:57:17 25° NNE 04:00:59 10° E visible
22 Jan 3.5 05:33:12 12° NW 05:37:09 72° SW 05:41:39 10° SSE visible
23 Jan 4.7 04:04:39 31° NNE 04:05:30 34° NE 04:09:35 10° ESE visible
23 Jan 4.0 05:41:11 11° NW 05:45:07 45° SW 05:49:24 10° SSE visible
24 Jan 4.2 04:12:42 41° N 04:13:40 49° NE 04:18:01 10° ESE visible
24 Jan 4.6 05:49:14 10° WNW 05:53:00 28° WSW 05:56:50 10° S visible
25 Jan 6.6 02:44:16 13° ENE 02:44:16 13° ENE 02:44:53 10° ENE visible
25 Jan 3.6 04:20:49 53° NNW 04:21:46 75° NE 04:26:14 10° SE visible
25 Jan 5.2 05:57:50 10° WNW 06:00:47 18° WSW 06:03:48 10° SSW visible
